Temperature
18 17 17 17 17 17 17 17 17 17 16 16 15 15 15 14 14 13 12 12 12 12 12 12 12 13 13 13 13 13 14 14 14 14 15 16 16 16 15 15 16 16 15
18 18 17 17 17 17 17 17 17 16 16 15 15 15 14 14 13 12 12 11 11 11 12 11 12 12 12 12 12 12 13 14 14 14 15 16 17 16 16 15 15 15 15
19 18 18 18 18 17 17 17 17 16 16 15 15 14 14 14 14 13 12 11 11 11 11 11 11 11 12 12 12 12 12 13 13 14 14 15 16 16 16 15 15 15 15
20 19 19 18 18 18 17 17 17 16 16 16 15 14 14 14 13 12 12 11 11 11 11 10 10 11 11 11 11 12 12 12 13 14 13 13 13 14 15 16 15 15 15
20 20 20 19 19 18 18 17 17 16 16 16 15 14 14 13 13 12 11 11 11 10 10 10 10 10 10 10 10 11 11 12 12 13 13 13 13 13 13 15 15 15 15
21 20 20 19 19 18 18 17 17 17 16 16 15 14 13 12 12 11 11 11 12 11 10 10 10 10 10 10 10 10 10 11 11 11 12 13 13 14 14 14 14 15 15
21 21 20 20 19 18 18 17 17 16 16 15 14 13 13 12 12 11 12 11 12 12 10 10 10 10 9 9 9 9 10 10 10 10 11 12 12 13 13 13 14 14 14
22 21 21 20 19 18 18 17 17 16 15 14 14 13 13 12 12 12 11 11 11 11 10 10 9 9 9 9 9 9 10 10 9 10 10 11 11 12 12 12 13 13 14
22 22 21 20 19 18 18 17 16 16 15 14 13 13 12 12 12 11 11 11 11 11 10 10 9 9 9 9 9 9 9 9 9 10 10 10 11 11 11 12 12 12 13
22 21 21 20 19 18 17 17 16 15 15 14 13 13 12 12 12 11 11 11 10 10 10 10 10 9 9 9 9 9 9 9 9 9 9 9 10 11 11 11 11 12 12
23 22 21 20 19 18 17 17 16 15 15 14 13 13 12 12 11 11 11 11 10 10 10 10 10 9 9 9 9 9 9 9 9 9 9 9 9 9 10 11 11 11 12
23 22 20 19 19 18 18 17 16 15 15 14 13 13 12 12 12 11 11 10 10 10 10 10 9 9 9 9 9 9 9 9 9 9 9 9 9 9 9 10 10 11 11
22 21 20 19 19 18 18 17 16 15 15 14 13 13 12 12 11 11 11 10 10 10 10 9 9 9 9 9 9 8 8 8 8 8 8 8 9 9 9 9 10 10 11
21 21 20 19 19 18 18 17 16 16 15 14 14 13 12 12 12 11 11 10 10 10 10 9 9 9 9 9 9 8 8 8 8 8 8 8 8 8 8 9 9 9 10
21 21 20 20 19 19 18 17 17 16 15 14 14 13 12 12 11 11 10 10 10 10 9 9 9 9 9 9 9 8 8 8 8 8 8 8 8 8 8 8 9 9 9
22 21 21 20 20 19 18 17 17 16 15 14 14 13 12 12 11 11 10 10 10 9 9 9 9 9 9 9 8 8 8 8 8 8 8 8 8 8 8 8 8 8 8
23 22 21 20 20 19 18 18 17 16 15 14 14 13 12 12 11 11 10 10 9 9 9 9 9 8 8 8 9 8 8 8 8 8 8 8 9 8 8 8 8 8 8
23 22 21 21 20 19 18 18 17 16 15 14 14 13 12 12 11 11 10 10 9 9 9 9 9 8 8 8 8 8 8 8 8 8 8 8 8 8 8 8 8 8 8
23 22 22 21 20 19 19 18 17 16 15 15 14 13 12 12 11 10 10 10 9 9 9 8 8 8 8 8 8 8 8 8 8 8 8 8 8 8 7 7 7 7 8
23 22 22 21 20 20 19 18 17 16 15 15 14 13 13 12 12 11 11 10 9 9 9 8 8 8 8 9 9 8 8 8 8 8 8 8 8 7 7 7 7 7 7
23 22 21 21 20 20 19 18 17 16 15 14 14 13 13 12 12 11 11 10 9 9 9 9 9 8 9 9 9 8 8 8 8 8 8 8 8 7 7 7 7 7 7
22 21 21 21 20 20 19 18 17 16 15 14 14 13 13 12 11 11 11 10 9 9 9 9 9 9 9 9 9 8 8 8 8 8 8 8 7 7 7 7 7 7 7
21 20 20 20 19 19 19 18 18 16 16 15 14 14 13 12 12 11 10 10 9 9 9 9 9 9 9 9 8 8 8 8 8 8 7 7 7 7 7 7 7 6 6
19 19 19 18 18 19 19 18 17 16 16 15 14 14 13 12 11 11 10 10 9 9 9 9 9 9 9 9 8 8 8 7 7 7 7 7 7 7 7 6 6 6 6
18 18 18 17 17 17 18 18 17 16 15 15 14 13 12 12 12 11 11 10 9 9 9 8 8 8 8 9 8 8 8 7 7 7 7 7 7 7 7 7 7 6 6
17 17 16 16 16 16 17 16 16 16 15 14 13 13 12 12 11 11 10 10 10 9 9 9 8 8 8 8 8 8 8 8 7 7 6 7 7 7 7 7 7 7 7
Wind_Speed
8 9 8 8 8 7 7 6 6 5 4 2 2 2 3 4 4 5 5 6 6 6 6 7 5 6 6 6 8 7 8 8 7 9 10 10 12 11 10 10 10 12 14
9 9 9 9 9 9 9 8 8 7 6 3 2 2 3 4 4 4 4 5 6 6 6 6 7 6 6 7 7 6 8 8 6 7 9 9 8 7 8 7 8 9 9
11 11 11 11 11 10 11 9 9 8 7 5 4 3 3 5 4 4 4 4 6 6 6 6 7 7 8 6 6 7 8 8 7 6 6 6 6 6 5 6 6 6 6
11 12 12 12 12 12 11 11 10 9 7 6 6 6 6 7 6 5 5 6 5 6 6 6 6 6 7 6 7 6 7 8 9 6 6 7 7 7 7 6 5 5 6
13 13 13 12 12 11 10 9 9 8 8 7 6 6 7 6 6 5 5 6 5 5 5 5 5 5 6 6 7 7 8 8 9 8 8 8 7 9 8 10 9 7 6
13 13 12 11 10 9 9 8 8 8 8 7 7 7 7 7 8 7 7 6 5 4 4 5 5 6 6 6 7 7 9 8 9 9 9 9 9 9 8 9 10 10 8
12 12 12 11 10 9 9 8 8 8 8 8 7 7 7 8 8 8 6 6 6 5 3 5 5 6 5 6 7 7 8 9 9 9 10 10 9 9 9 10 10 11 10
11 10 10 9 8 8 8 8 8 7 7 7 7 7 7 8 7 6 7 7 7 6 6 6 7 7 8 8 7 8 8 7 8 10 10 10 11 10 10 10 10 11 11
9 8 8 8 8 8 8 8 8 7 7 7 7 7 8 8 8 8 9 8 6 7 7 8 8 9 9 9 9 9 8 8 9 10 10 10 10 10 10 10 10 10 11
9 9 8 8 8 8 8 7 7 7 7 7 8 7 7 8 8 9 9 9 9 9 9 10 10 10 10 10 10 11 10 9 10 9 10 10 11 10 10 10 10 10 11
9 9 9 8 8 8 8 8 8 8 8 8 8 8 9 9 9 9 10 10 10 9 10 10 10 11 11 11 10 11 11 12 12 11 11 11 11 10 10 10 10 10 11
9 9 9 8 8 8 8 8 7 8 8 8 8 9 9 9 10 11 10 10 10 11 11 11 11 12 12 11 11 12 12 12 12 12 12 12 11 11 11 11 11 11 11
10 9 9 9 9 8 8 7 7 7 7 7 8 9 10 10 11 11 11 10 11 11 11 11 12 12 12 12 12 12 12 13 12 12 12 12 12 12 11 11 12 11 11
10 10 10 9 9 8 8 7 7 7 7 7 8 9 10 10 10 11 11 11 11 11 12 12 12 12 12 12 12 12 12 12 12 12 12 13 13 13 12 11 12 12 12
11 11 10 9 9 9 8 8 7 7 7 8 9 9 9 10 10 10 11 11 11 12 12 12 12 12 12 12 11 11 12 12 13 13 13 13 12 11 11 12 12 11 11
12 12 11 10 10 9 9 8 8 7 7 8 9 9 9 10 10 10 11 11 11 12 12 12 13 13 11 5 3 10 13 13 14 14 13 13 13 14 16 17 17 15 14
11 12 12 11 10 9 9 9 8 7 7 8 9 9 9 10 10 11 11 11 12 12 12 12 12 13 12 8 9 10 13 15 15 14 13 13 12 10 13 15 19 19 20
11 12 12 11 10 10 9 8 8 7 8 8 8 9 9 10 10 10 11 11 11 11 11 12 12 12 12 9 10 10 13 15 16 15 15 14 14 13 12 13 14 14 15
12 11 12 12 10 10 10 9 9 8 8 9 8 8 9 10 10 11 11 11 11 11 12 12 12 12 13 10 11 11 12 13 15 15 15 14 14 10 8 12 15 15 15
12 12 12 11 11 11 11 10 10 9 9 9 8 8 8 9 10 11 11 11 11 12 12 12 12 13 13 10 9 10 10 13 13 13 13 13 15 9 7 12 14 15 15
12 12 12 12 12 12 12 11 11 10 9 8 8 8 8 9 10 10 10 11 11 12 12 13 13 13 13 12 11 12 10 12 12 12 11 9 11 12 11 12 14 14 13
11 11 11 12 11 12 12 12 11 9 8 7 8 9 9 9 9 10 11 11 11 12 12 12 12 11 11 11 10 12 14 13 13 12 12 7 7 9 10 11 13 12 11
10 10 11 12 11 12 12 13 11 9 8 8 9 9 9 9 10 11 11 11 10 10 10 10 11 10 9 8 11 14 15 15 12 12 11 8 5 8 11 16 15 12 12
7 8 9 11 11 11 12 12 10 9 9 10 10 9 9 10 10 9 10 10 10 10 10 10 11 11 10 9 8 7 8 12 13 13 12 14 15 14 13 10 12 12 12
6 5 6 8 9 10 10 10 10 10 10 11 10 10 10 10 9 10 10 11 10 9 11 11 11 12 12 8 6 8 10 10 8 8 10 10 10 10 11 11 11 11 11
8 6 5 6 7 7 8 9 10 11 11 10 10 10 9 8 9 10 11 12 14 13 14 16 16 13 14 14 13 12 13 14 10 9 11 12 11 11 11 10 10 10 11
Wind_Direction
166 167 173 177 177 180 183 187 195 184 200 216 266 307 330 336 339 345 2 343 342 340 323 313 309 293 289 293 290 284 280 276 285 283 279 269 254 249 247 244 246 240 235
171 175 183 191 197 197 203 206 210 209 216 214 251 290 314 315 326 329 337 333 335 329 320 331 306 305 301 281 282 278 287 288 285 289 295 288 268 232 240 239 238 244 242
186 188 197 204 209 213 215 219 220 219 223 222 239 255 263 272 290 321 320 330 322 318 321 314 311 312 296 294 294 285 275 285 285 278 290 297 300 315 259 246 244 244 248
197 200 206 213 217 221 222 224 225 225 222 220 244 273 296 307 318 310 316 312 299 306 306 304 304 303 299 302 286 291 291 277 280 274 264 273 294 293 292 275 259 256 259
203 209 215 219 224 227 228 226 224 221 217 222 234 255 277 294 297 301 297 294 294 292 298 302 303 298 293 305 306 300 289 283 279 285 282 277 271 264 272 286 292 282 271
206 214 220 223 227 227 225 224 215 213 210 218 233 251 274 281 290 291 297 292 292 289 290 292 295 290 299 302 293 293 280 281 288 286 282 280 280 281 280 283 287 288 283
208 214 218 219 219 219 217 212 206 208 210 220 234 246 258 266 265 274 283 287 296 296 302 296 287 290 292 289 289 284 287 282 279 276 277 279 280 281 283 283 286 288 287
207 212 212 209 208 206 202 202 204 209 213 225 235 245 253 261 268 268 283 286 289 298 307 286 278 278 279 281 281 281 274 274 277 276 277 279 274 275 275 278 285 287 285
202 202 197 195 195 195 196 200 204 213 221 233 237 245 251 262 275 275 264 271 277 282 282 281 278 276 274 274 275 273 277 275 272 274 267 265 274 270 270 271 273 279 284
194 192 190 190 191 192 194 202 211 222 233 239 245 251 255 258 261 268 275 277 279 278 278 277 277 276 274 270 268 271 264 265 266 268 277 278 275 277 274 270 268 267 272
191 186 185 186 189 194 199 208 218 229 239 248 251 259 263 267 265 264 266 268 272 276 274 275 277 277 276 274 269 270 274 267 267 268 266 264 271 275 277 272 268 266 266
189 185 184 186 196 205 211 216 227 236 245 253 257 259 263 268 270 270 269 269 269 272 274 276 277 278 277 275 272 271 271 268 267 266 267 266 265 263 266 271 271 269 270
188 188 190 197 206 213 220 229 236 247 254 256 260 264 268 271 272 275 276 274 272 274 277 278 279 279 279 277 274 271 269 268 267 266 265 265 265 265 266 267 268 269 265
193 198 200 206 213 217 222 232 243 253 259 264 268 271 274 278 280 279 278 276 275 276 278 280 281 281 279 277 274 270 268 267 267 265 264 263 261 260 262 264 262 265 269
203 207 211 212 213 216 220 229 239 248 256 264 272 277 279 280 280 279 278 278 278 278 280 282 281 279 277 272 274 276 273 271 269 266 262 260 259 269 270 271 272 269 263
215 216 217 219 218 219 222 226 233 242 248 260 272 280 282 283 282 281 280 280 279 281 282 280 279 279 277 294 295 276 280 277 272 269 267 264 251 242 237 248 260 269 270
225 223 223 223 222 219 217 221 228 236 245 257 269 277 280 283 285 285 285 284 284 284 281 279 278 278 277 262 243 250 269 271 270 269 267 266 265 249 251 237 233 244 247
232 228 228 225 220 216 211 214 221 229 244 257 269 277 281 283 285 284 284 285 286 285 282 280 280 279 276 252 239 244 261 265 265 265 264 264 267 264 262 262 256 251 244
235 233 232 230 219 213 208 207 220 231 244 256 266 276 282 285 286 285 286 288 287 284 282 279 279 277 277 257 236 241 269 265 265 264 263 262 263 255 237 257 263 263 259
235 231 229 225 212 206 201 208 222 232 242 255 264 273 277 281 283 285 286 287 285 282 282 282 280 279 279 267 230 228 264 267 268 267 263 250 244 253 224 249 256 258 258
236 231 227 222 214 201 196 209 224 233 243 254 260 265 270 275 277 280 280 282 282 283 283 284 282 278 273 267 238 225 252 267 272 274 273 270 198 212 222 241 255 260 269
246 234 226 225 215 200 197 211 223 230 237 247 255 262 267 274 279 277 277 278 279 279 278 279 281 278 269 256 247 221 231 258 271 273 275 279 161 198 222 237 249 254 260
262 248 236 232 219 205 204 214 219 218 223 234 247 256 263 267 271 273 275 274 270 272 280 284 286 287 284 267 226 225 229 233 248 265 280 294 258 245 243 238 238 239 241
287 267 251 242 228 213 210 214 212 209 217 229 240 248 257 262 264 266 269 271 274 275 279 281 284 287 288 285 281 263 244 229 239 255 255 236 239 244 257 252 226 230 236
329 299 267 254 244 225 217 213 207 205 219 233 239 247 255 261 269 267 266 270 271 278 282 286 287 287 287 304 354 313 295 293 301 300 275 266 256 243 240 242 239 233 228
357 339 311 285 268 243 227 218 213 208 217 232 240 246 251 255 261 270 272 239 236 248 244 249 261 277 276 287 290 280 271 269 271 271 263 263 260 256 252 248 243 235 231
Height
1543 1545 1547 1549 1550 1551 1552 1553 1554 1554 1554 1555 1555 1554 1553 1551 1549 1547 1543 1542 1540 1539 1538 1538 1537 1537 1537 1536 1536 1536 1535 1534 1533 1532 1530 1528 1526 1525 1525 1525 1525 1526 1526
1543 1545 1547 1548 1550 1551 1551 1552 1553 1553 1553 1553 1552 1551 1550 1549 1547 1545 1542 1540 1538 1537 1537 1535 1535 1535 1533 1533 1532 1532 1532 1532 1531 1530 1528 1525 1524 1521 1521 1520 1519 1520 1520
1542 1544 1546 1548 1549 1549 1550 1551 1551 1551 1551 1551 1551 1550 1548 1547 1546 1544 1542 1539 1537 1535 1534 1533 1532 1531 1531 1531 1530 1529 1529 1529 1528 1527 1527 1524 1520 1519 1518 1517 1516 1515 1515
1541 1543 1544 1546 1547 1548 1549 1549 1549 1549 1548 1548 1549 1548 1547 1546 1544 1542 1540 1537 1535 1533 1532 1530 1529 1528 1528 1527 1527 1527 1526 1525 1525 1525 1523 1523 1521 1520 1516 1515 1514 1512 1511
1538 1540 1542 1543 1545 1546 1546 1546 1546 1546 1546 1546 1545 1545 1544 1543 1542 1540 1538 1535 1534 1531 1530 1528 1526 1525 1525 1524 1523 1522 1522 1522 1522 1522 1521 1520 1518 1517 1515 1512 1511 1510 1508
1535 1537 1539 1540 1541 1542 1543 1543 1543 1543 1543 1543 1542 1542 1541 1539 1538 1537 1535 1534 1533 1530 1528 1526 1524 1523 1523 1521 1519 1518 1519 1518 1517 1517 1517 1517 1516 1514 1512 1510 1508 1506 1505
1532 1534 1535 1537 1538 1539 1540 1540 1540 1540 1540 1540 1539 1538 1537 1536 1535 1534 1533 1531 1531 1529 1526 1524 1521 1521 1519 1517 1516 1515 1515 1514 1513 1512 1513 1513 1512 1511 1510 1508 1505 1503 1501
1528 1530 1532 1533 1535 1536 1537 1537 1538 1538 1537 1537 1536 1535 1534 1533 1533 1531 1530 1529 1527 1526 1523 1520 1519 1517 1516 1515 1514 1513 1512 1511 1509 1509 1508 1507 1507 1507 1506 1505 1503 1500 1497
1525 1527 1529 1530 1532 1533 1534 1535 1535 1534 1534 1534 1533 1531 1530 1529 1529 1527 1526 1525 1523 1522 1520 1518 1516 1514 1512 1511 1509 1509 1507 1507 1505 1505 1505 1503 1503 1502 1501 1500 1500 1499 1495
1522 1524 1526 1528 1529 1530 1531 1531 1531 1531 1531 1530 1529 1529 1527 1526 1524 1523 1522 1521 1519 1517 1515 1514 1512 1510 1509 1507 1505 1505 1504 1502 1501 1500 1499 1498 1498 1498 1497 1496 1495 1494 1493
1518 1521 1523 1525 1526 1527 1528 1528 1528 1527 1527 1526 1525 1524 1523 1522 1521 1519 1518 1516 1515 1513 1511 1509 1507 1506 1504 1503 1501 1500 1499 1497 1496 1495 1495 1493 1492 1492 1492 1492 1491 1490 1489
1515 1518 1520 1521 1523 1524 1524 1525 1524 1524 1523 1522 1521 1520 1519 1518 1517 1516 1514 1512 1510 1508 1507 1504 1503 1501 1499 1497 1496 1494 1493 1492 1491 1490 1489 1488 1488 1487 1486 1486 1486 1485 1484
1512 1515 1516 1518 1519 1520 1521 1521 1521 1521 1520 1519 1518 1516 1515 1514 1512 1511 1509 1507 1505 1503 1501 1499 1497 1495 1494 1492 1490 1489 1487 1486 1486 1485 1484 1483 1482 1481 1481 1481 1480 1480 1479
1509 1511 1513 1514 1515 1516 1517 1517 1517 1517 1516 1515 1514 1513 1511 1510 1508 1506 1504 1502 1500 1498 1496 1494 1492 1490 1488 1486 1485 1483 1482 1481 1480 1479 1478 1477 1477 1476 1476 1475 1475 1475 1474
1505 1507 1509 1510 1511 1512 1513 1513 1513 1512 1512 1511 1510 1509 1507 1505 1503 1501 1499 1497 1494 1492 1490 1488 1486 1483 1482 1481 1480 1478 1477 1476 1475 1474 1472 1472 1471 1470 1470 1470 1470 1470 1470
1501 1503 1505 1506 1507 1508 1508 1509 1509 1508 1507 1506 1505 1504 1502 1500 1498 1496 1493 1491 1489 1487 1484 1482 1479 1478 1476 1475 1473 1472 1470 1470 1469 1468 1467 1466 1464 1463 1462 1462 1463 1463 1464
1497 1499 1500 1501 1502 1503 1504 1504 1504 1504 1503 1502 1500 1499 1497 1495 1493 1491 1489 1486 1484 1481 1478 1476 1473 1471 1470 1468 1467 1465 1464 1463 1462 1462 1460 1460 1460 1458 1458 1456 1455 1455 1456
1492 1494 1496 1497 1498 1498 1499 1499 1499 1499 1498 1497 1496 1495 1492 1490 1488 1485 1483 1480 1478 1475 1472 1470 1468 1465 1464 1462 1461 1459 1458 1457 1456 1455 1454 1453 1452 1452 1452 1451 1451 1450 1450
1488 1489 1491 1492 1493 1493 1494 1494 1494 1494 1493 1493 1491 1490 1488 1485 1483 1480 1478 1475 1472 1469 1467 1465 1462 1460 1458 1457 1455 1454 1452 1451 1450 1449 1448 1446 1446 1445 1444 1444 1444 1444 1444
1483 1484 1485 1486 1486 1487 1488 1488 1489 1489 1488 1488 1486 1484 1482 1480 1477 1475 1472 1469 1467 1464 1461 1459 1457 1455 1453 1451 1449 1448 1446 1445 1444 1443 1441 1439 1439 1438 1437 1437 1437 1436 1437
1477 1478 1479 1479 1480 1481 1481 1482 1483 1483 1483 1482 1481 1479 1477 1474 1472 1469 1466 1464 1461 1459 1456 1453 1451 1449 1447 1445 1443 1442 1441 1440 1439 1437 1436 1435 1432 1431 1431 1430 1430 1430 1430
1472 1473 1472 1472 1473 1474 1475 1476 1477 1478 1477 1476 1475 1474 1472 1469 1467 1464 1461 1458 1456 1453 1450 1448 1445 1443 1442 1440 1438 1436 1435 1433 1432 1431 1430 1429 1426 1425 1424 1423 1423 1422 1422
1467 1467 1467 1466 1466 1467 1468 1469 1471 1471 1471 1470 1469 1468 1466 1464 1461 1459 1456 1453 1451 1448 1446 1444 1441 1439 1437 1435 1432 1430 1429 1427 1425 1424 1423 1422 1420 1418 1417 1416 1416 1416 1415
1462 1462 1461 1461 1460 1460 1461 1463 1464 1464 1464 1464 1463 1461 1460 1458 1456 1453 1451 1449 1446 1444 1441 1439 1436 1434 1432 1430 1428 1426 1424 1421 1419 1417 1416 1414 1413 1411 1411 1410 1409 1408 1409
1458 1457 1456 1455 1455 1455 1455 1456 1457 1458 1458 1457 1456 1455 1454 1452 1450 1447 1445 1442 1440 1438 1435 1433 1431 1428 1426 1424 1422 1420 1418 1417 1415 1412 1411 1409 1408 1406 1404 1404 1403 1403 1402
1456 1455 1453 1451 1451 1450 1450 1450 1450 1450 1450 1450 1449 1448 1448 1446 1444 1442 1439 1436 1433 1430 1427 1425 1423 1420 1419 1416 1414 1413 1411 1409 1407 1405 1404 1403 1401 1400 1399 1398 1397 1396 1396